Cloud_Cover
100 100 97 100 97 20 44 12 27 29 37 5 22 5 5 5 5 5 5 5 5 0 0 0 0 4 28 10 5 89 100 100 88 86 12 47 25 18 5 5 54 52 7 3 0
100 100 56 94 46 28 51 18 26 34 29 2 0 1 4 4 5 5 5 5 0 4 0 0 0 0 9 6 84 78 100 92 100 98 67 100 100 100 100 70 57 21 44 8 0
100 100 44 63 54 13 29 12 2 24 8 5 5 0 0 4 4 5 5 5 2 3 0 0 2 0 5 9 37 15 98 98 92 99 12 28 76 100 100 100 100 100 98 0 0
100 100 98 96 44 44 21 7 5 26 21 34 4 0 0 0 1 5 5 5 5 0 0 0 1 45 96 52 22 90 33 89 46 5 14 14 10 19 80 40 64 59 0 0 0
88 100 100 100 56 100 7 4 5 15 80 65 4 4 1 0 0 4 2 5 0 0 0 0 54 40 64 86 66 100 50 25 2 2 41 11 15 8 29 0 0 4 1 4 5
100 100 100 100 100 83 23 5 1 11 6 3 5 37 1 0 0 0 5 5 1 0 0 0 4 0 43 28 77 16 55 50 54 2 2 58 5 5 2 0 0 0 1 5 2
100 100 100 90 99 69 25 5 5 5 5 7 39 8 2 0 0 0 0 5 3 0 4 5 5 5 0 81 15 3 58 64 59 5 5 44 4 9 5 3 5 5 5 3 5
100 100 100 100 96 26 3 5 5 5 5 5 3 0 0 0 0 0 0 0 0 0 5 2 5 5 5 0 14 50 90 99 80 5 3 35 100 20 1 4 4 5 80 5 4
100 100 100 100 96 12 0 0 4 5 5 4 3 0 0 0 0 0 0 0 0 5 5 3 0 1 11 87 100 93 100 56 83 9 6 22 97 79 5 5 0 0 1 4 5
100 100 98 100 86 0 0 11 0 32 16 0 0 0 0 0 0 0 0 0 0 0 4 0 1 36 100 92 87 100 100 100 81 94 90 47 94 100 8 5 5 4 0 0 5
100 100 100 100 41 3 11 0 0 0 0 0 0 0 0 0 0 0 0 0 0 0 21 1 10 100 100 96 5 6 13 95 65 54 97 100 96 40 47 4 5 3 0 0 1
100 96 100 32 0 3 11 0 0 0 0 0 0 0 0 0 0 0 0 0 0 0 7 45 16 93 18 35 5 70 89 89 34 50 82 100 96 100 97 100 11 1 4 0 0
100 99 42 8 7 34 0 0 0 0 0 0 0 0 0 0 0 0 0 0 0 0 38 11 86 100 2 23 22 100 38 97 21 34 98 66 58 92 70 100 46 0 0 2 0
100 100 46 14 41 0 0 0 0 0 0 0 0 0 0 0 0 0 0 0 0 0 5 63 95 70 91 78 34 28 54 51 56 45 91 100 100 100 56 100 38 100 9 0 0
100 100 47 54 0 0 0 0 0 0 0 0 0 0 0 0 0 0 0 0 0 0 4 74 8 76 86 75 89 100 2 56 5 33 85 100 100 100 100 96 100 100 100 6 3
100 100 87 0 0 0 0 0 0 0 0 0 0 0 0 0 0 0 0 0 0 0 2 4 58 35 74 94 1 1 0 4 0 66 100 60 100 100 100 100 100 25 52 8 0
99 91 54 0 0 0 0 0 0 0 0 0 0 0 0 0 0 0 0 0 0 0 0 0 1 5 5 9 5 0 4 62 100 82 100 100 94 100 100 95 99 86 30 5 8
48 64 2 0 0 0 0 0 0 0 0 0 0 0 0 0 0 0 0 0 0 0 0 5 5 28 5 5 24 99 84 95 100 96 100 100 100 97 97 100 99 98 72 93 49
48 0 0 0 0 0 0 0 0 0 0 0 0 0 0 0 0 0 0 0 0 0 0 4 6 10 4 5 5 6 17 51 66 92 100 100 96 97 100 100 100 100 100 98 100
0 0 0 0 0 0 0 0 0 0 0 0 0 0 0 0 0 0 0 0 0 0 0 0 1 1 0 0 0 1 71 88 12 39 98 96 92 96 58 89 98 100 67 76 30
0 0 0 0 0 0 0 0 0 0 0 0 0 0 0 5 0 0 0 0 0 0 0 0 0 1 0 0 3 2 0 0 61 66 84 49 100 61 71 63 0 1 0 0 4
0 0 0 0 0 0 0 0 0 0 0 0 0 0 0 0 0 4 2 0 3 0 0 0 0 0 3 3 0 0 1 2 5 2 19 98 35 100 100 12 0 0 0 0 0
0 0 0 0 0 0 0 0 0 0 0 0 2 2 5 5 5 4 1 0 0 0 0 0 0 0 2 5 0 0 0 1 5 77 100 90 57 89 75 2 0 1 0 0 0
0 0 0 0 0 0 0 0 0 0 0 0 0 0 0 4 4 0 0 0 0 0 0 0 0 0 15 54 100 26 0 2 3 97 67 25 9 0 3 0 0 0 4 4 4
0 0 0 0 0 0 0 0 0 0 0 0 0 0 0 0 2 4 4 5 0 0 0 0 0 0 5 89 29 29 78 9 0 0 20 78 100 88 29 0 0 0 0 3 5
0 0 0 0 0 0 0 0 0 0 0 0 0 0 0 0 0 67 46 70 5 0 0 0 0 0 5 2 5 0 0 5 13 20 5 5 89 100 82 0 0 0 0 0 3
0 0 0 0 0 0 0 0 0 0 0 0 0 0 0 0 0 2 0 1 98 86 1 0 11 5 5 11 91 28 0 4 5 5 100 67 100 0 0 0 0 1 2 0 0